Hourly Data Report for October 24, 2015

All times are specified in Local Standard Time (LST). Add 1 hour to adjust for Daylight Saving Time where and when it is observed.

SAINT JOHN A
NEW BRUNSWICK

45°18'58.000" N
65°53'24.000" W
108.80 m
8104901
71609
YSJ

Download Data

Hourly Data (October 2015)
Hourly Data Report for October 24, 2015
Temp Definition
°C
Dew Point Temp Definition
°C
Rel Hum Definition
%
Wind Dir Definition
10's deg

Wind Spd Definition
km/h
Visibility Definition
km
Stn Press Definition
kPa
Hmdx Definition


Wind Chill Definition


Weather Definition


TIME
00:00 Legend Double Dagger 1.3 -1.6 81 35 21 24.1 101.24     LegendNANA
01:00 Legend Double Dagger 1.4 -1.5 81 36 20 24.1 101.31     LegendNANA
02:00 Legend Double Dagger 1.7 -1.4 80 36 14 24.1 101.38     Mostly Cloudy
03:00 Legend Double Dagger 2.0 -1.3 79 34 17 24.1 101.42     LegendNANA
04:00
05:00 Legend Double Dagger 1.7 -1.0 82 2 4 24.1 101.52     Mostly Cloudy
06:00 Legend Double Dagger 1.5 -1.2 82 3 9 24.1 101.56     LegendNANA
07:00 Legend Double Dagger 0.7 -1.4 86 36 12 24.1 101.59     LegendNANA
08:00 Legend Double Dagger 2.4 -0.5 81 2 10 24.1 101.63     Mainly Clear
09:00 Legend Double Dagger 3.7 -0.1 76 2 12 24.1 101.71     LegendNANA
10:00 Legend Double Dagger 5.8 0.6 69 2 9 24.1 101.68     LegendNANA
11:00 Legend Double Dagger 5.9 0.5 68 33 8 24.1 101.67     Mostly Cloudy
12:00 Legend Double Dagger 6.5 0.6 66 36 1 24.1 101.65     LegendNANA
13:00 Legend Double Dagger 7.0 0.7 64 16 11 24.1 101.60     LegendNANA
14:00 Legend Double Dagger 7.6 1.0 63 19 8 24.1 101.54     Mainly Clear
15:00 Legend Double Dagger 8.1 1.1 61 14 13 24.1 101.51     LegendNANA
16:00 Legend Double Dagger 7.3 0.7 63 18 10 24.1 101.53     LegendNANA
17:00 Legend Double Dagger 6.2 1.0 69 15 9 24.1 101.48     Mostly Cloudy
18:00 Legend Double Dagger 3.1 1.3 88 16 4 24.1 101.49     LegendNANA
19:00 Legend Double Dagger 1.6 0.4 92 18 3 24.1 101.51     LegendNANA
20:00 Legend Double Dagger -1.5 -2.3 94 36 1 24.1 101.46   -2 Clear
21:00 Legend Double Dagger 0.5 -0.5 93 20 5 24.1 101.43     LegendNANA
22:00 Legend Double Dagger 3.7 2.1 89 20 8 24.1 101.38     LegendNANA
23:00 Legend Double Dagger 7.1 3.4 77 20 16 24.1 101.27     Cloudy

Notes on Data Quality.

Legend

  • E = Estimated
  • M = Missing
  • NA = Not Available
  • ‡ = Partner data that is not subject to review by the National Climate Archives
Date modified: